Location: Chervonnoye
(48.6000°N, 34.4000°E)
Time: 17:59:18
(UTC+00:00)

UKube-1 - Pass Details

Date: 06 December 2021
Orbit: 610 x 618 km, 98.4° (Epoch: 20 January)

Event Time Altitude Azimuth Distance (km) Brightness Sun altitude
Rises 04:19:28 0° 119° (ESE) 2,887 ? -9.5°
Reaches altitude 10° 04:22:17 10° 99° (E) 1,986 ? -9.1°
Maximum altitude 04:25:03 17° 59° (ENE) 1,580 ? -8.7°
Drops below altitude 10° 04:27:50 10° 19° (NNE) 1,993 ? -8.2°
Sets 04:30:39 0° 360° (N) 2,903 ? -7.8°
